{"data":{"norad_id":68336,"epoch":"2026-09-20T04:54:48.011040Z","epoch_age_seconds":73917,"freshness":"FRESH","line1":"1 68336U 26059R   26263.20472235  .00025624  00000+0  76652-3 0  9999","line2":"2 68336  53.1556 162.8555 0001487  48.2407 311.8722 15.34415979 27988","mean_motion":15.34415979,"eccentricity":0.0001487,"inclination_deg":53.1556,"raan_deg":162.8555,"arg_perigee_deg":48.2407,"mean_anomaly_deg":311.8722,"bstar":0.00076652,"rev_number":2798,"period_min":93.846780775736,"perigee_km":461.63852178226,"apogee_km":463.67297354541,"semimajor_km":6840.7927476638,"source":"CELESTRAK","updated_at":"2026-09-20T09:00:43.887407Z"}}